Regional Weather Roundup
Issued by NWS

Home | Current Version | Previous Version | Text Only | Print | Product List | Glossary On
Versions: 1 2 3 4 5 6 7 8 9 10 11 12 13 14 15 16 17 18 19 20 21 22 23 24 25 26 27 28 29 30 31 32 33 34 35 36 37 38 39 40 41 42 43 44 45 46 47 48 49 50
000
ASUS43 KFSD 211710
RWRSD

WEATHER ROUNDUP FOR SOUTH DAKOTA
NATIONAL WEATHER SERVICE SIOUX FALLS SD
1200 PM CDT TUE MAY 21 2019

NOTE: "FAIR" INDICATES FEW OR NO CLOUDS BELOW 12,000 FEET WITH NO
SIGNIFICANT WEATHER AND/OR OBSTRUCTIONS TO VISIBILITY.


SDZ001>005-009-010-012>017-211800-
NORTHWEST AND NORTH CENTRAL SOUTH DAKOTA

CITY           SKY/WX    TMP DP  RH WIND       PRES   REMARKS
BUFFALO          N/A     44  39  82 E14       29.83F
FAITH            N/A     44  42  93 E20G30    29.84F
MOBRIDGE       CLOUDY    54  40  59 E18G30    29.86F
$$

SDZ012>016-024>037-041>051-057-063-072>074-211800-
SOUTHWEST AND SOUTH CENTRAL SOUTH DAKOTA

CITY           SKY/WX    TMP DP  RH WIND       PRES   REMARKS
RAPID CTY ARPT LGT RAIN  40  37  89 NE13      29.78F
PIERRE         RAIN      46  43  89 E20       29.79F FOG
CUSTER         SNOW      31  28  89 NE16G25   29.70F VSB 1/2 WCI  20
ELLSWORTH AFB  LGT RAIN  40  40 100 NE7       29.78F
PHILIP         RAIN      44  44 100 NE22G32   29.76F FOG
PINE RIDGE     LGT RAIN  39  36  89 NE13      29.69F
SPEARFISH      LGT SNOW  36  36 100 E13       29.81F
WINNER         RAIN      46  43  89 E17       29.71F FOG
$$

SDZ004>011-016>023-039-040-211800-
NORTHEAST SOUTH DAKOTA

CITY           SKY/WX    TMP DP  RH WIND       PRES   REMARKS
ABERDEEN       CLOUDY    58  38  47 E20G33    29.91F
WATERTOWN      CLOUDY    53  38  56 E20G37    29.89F
BROOKINGS      LGT RAIN  51  40  65 E20G31    29.87F
SISSETON         N/A     58  40  51 E26G37    29.95F
$$

SDZ017-020-022-023-036>040-048>070-211800-
SOUTHEAST SOUTH DAKOTA

CITY           SKY/WX    TMP DP  RH WIND       PRES   REMARKS
SIOUX FALLS    CLOUDY    49  45  86 E22G30    29.83S
HURON          LGT RAIN  50  42  74 E17G26    29.83F
CHAMBERLAIN    LGT RAIN  47  47 100 E16G26    29.75F
MADISON        CLOUDY    46  46 100 E26G35    29.83F
MITCHELL       LGT RAIN  49  44  83 E23G36    29.79F
YANKTON        LGT RAIN  47  45  93 E17G32    29.73F
$$

ABBREVIATIONS USED IN REMARKS
   TC - TEMPERATURE IN CELSIUS
  WCI - WIND CHILL INDEX
   HX - HEAT INDEX
  VSB - VISIBILITY




USA.gov is the U.S. government's official web portal to all federal, state and local government web resources and services.